Station Historical Data
Daily Summary for October 4, 2017 Units:  English    Metric   Both
« Previous Day
Next Day »
Daily Weekly Monthly Yearly Custom
  High: Low: Average:
Temperature: 67.8 °F 48.3 °F 56.4 °F
Dew Point: 36.2 °F 29.5 °F 32.6 °F
Humidity: 49 % 29 % 41 %
Wind Speed: 8.0 mph 0.0 mph 0.9 mph
Wind Gust: 13.0 mph - -
Wind:- - SSW
Pressure: 30.15 in 30.01 in -
Precipitation: 0.00 in    
Historical Graphs
 
 
Tabular Data for October 4, 2017
Time Temperature Dew Point Pressure Wind Wind Speed Wind Gust Humidity Rainfall Rate (Hourly) solar
00:04 52.0 °F 31.9 °F 30.02 in Calm   9.0 mph 46 % 0.00 in 0.00 W/m2
00:09 51.9 °F 31.8 °F 30.01 in Calm   9.0 mph 46 % 0.00 in 0.00 W/m2
00:10 51.9 °F 31.8 °F 30.01 in East 1.0 mph 9.0 mph 46 % 0.00 in 0.00 W/m2
00:15 51.8 °F 32.2 °F 30.02 in Calm   9.0 mph 47 % 0.00 in 0.00 W/m2
00:20 51.8 °F 32.2 °F 30.02 in Calm   6.0 mph 47 % 0.00 in 0.00 W/m2
00:25 51.7 °F 32.1 °F 30.01 in Calm   11.0 mph 47 % 0.00 in 0.00 W/m2
00:30 51.6 °F 32.0 °F 30.01 in Calm   6.0 mph 47 % 0.00 in 0.00 W/m2
00:35 51.5 °F 32.0 °F 30.02 in Calm   6.0 mph 47 % 0.00 in 0.00 W/m2
00:40 51.5 °F 32.0 °F 30.02 in Calm   8.0 mph 47 % 0.00 in 0.00 W/m2
00:45 51.4 °F 31.9 °F 30.02 in Calm   6.0 mph 47 % 0.00 in 0.00 W/m2
00:50 51.3 °F 31.8 °F 30.02 in East 7.0 mph 8.0 mph 47 % 0.00 in 0.00 W/m2
00:55 51.2 °F 31.7 °F 30.02 in Calm   11.0 mph 47 % 0.00 in 0.00 W/m2
01:00 51.2 °F 31.7 °F 30.02 in ESE 2.0 mph 7.0 mph 47 % 0.00 in 0.00 W/m2
01:05 51.1 °F 31.6 °F 30.02 in ESE 4.0 mph 8.0 mph 47 % 0.00 in 0.00 W/m2
01:10 51.0 °F 31.0 °F 30.02 in Calm   7.0 mph 46 % 0.00 in 0.00 W/m2
01:15 51.0 °F 31.5 °F 30.02 in ESE 6.0 mph 9.0 mph 47 % 0.00 in 0.00 W/m2
01:25 50.9 °F 30.9 °F 30.02 in East 4.0 mph 8.0 mph 46 % 0.00 in 0.00 W/m2
01:30 50.9 °F 30.9 °F 30.02 in Calm   11.0 mph 46 % 0.00 in 0.00 W/m2
01:35 50.8 °F 30.8 °F 30.02 in ESE 2.0 mph 11.0 mph 46 % 0.00 in 0.00 W/m2
01:40 50.8 °F 30.8 °F 30.03 in Calm   7.0 mph 46 % 0.00 in 0.00 W/m2
01:45 50.8 °F 30.8 °F 30.03 in Calm   11.0 mph 46 % 0.00 in 0.00 W/m2
01:50 50.8 °F 30.8 °F 30.03 in Calm   11.0 mph 46 % 0.00 in 0.00 W/m2
01:55 50.7 °F 30.7 °F 30.03 in Calm   9.0 mph 46 % 0.00 in 0.00 W/m2
02:00 50.7 °F 30.7 °F 30.03 in Calm   9.0 mph 46 % 0.00 in 0.00 W/m2
02:05 50.6 °F 30.6 °F 30.03 in Calm   12.0 mph 46 % 0.00 in 0.00 W/m2
02:10 50.5 °F 30.5 °F 30.03 in Calm   11.0 mph 46 % 0.00 in 0.00 W/m2
02:14 50.5 °F 30.5 °F 30.03 in Calm   11.0 mph 46 % 0.00 in 0.00 W/m2
02:19 50.4 °F 30.4 °F 30.03 in Calm   8.0 mph 46 % 0.00 in 0.00 W/m2
02:20 50.4 °F 30.4 °F 30.03 in Calm   8.0 mph 46 % 0.00 in 0.00 W/m2
02:25 50.3 °F 30.3 °F 30.03 in Calm   8.0 mph 46 % 0.00 in 0.00 W/m2
02:31 50.3 °F 30.3 °F 30.03 in Calm   8.0 mph 46 % 0.00 in 0.00 W/m2
02:36 50.2 °F 30.2 °F 30.04 in Calm   9.0 mph 46 % 0.00 in 0.00 W/m2
02:41 50.2 °F 30.2 °F 30.04 in ESE 7.0 mph 9.0 mph 46 % 0.00 in 0.00 W/m2
02:46 50.2 °F 30.2 °F 30.04 in Calm   11.0 mph 46 % 0.00 in 0.00 W/m2
02:51 50.2 °F 30.2 °F 30.04 in East 2.0 mph 9.0 mph 46 % 0.00 in 0.00 W/m2
02:56 50.3 °F 30.3 °F 30.05 in Calm   9.0 mph 46 % 0.00 in 0.00 W/m2
03:01 50.3 °F 30.3 °F 30.05 in Calm   9.0 mph 46 % 0.00 in 0.00 W/m2
03:06 50.3 °F 30.3 °F 30.05 in Calm   9.0 mph 46 % 0.00 in 0.00 W/m2
03:11 50.3 °F 30.3 °F 30.05 in Calm   8.0 mph 46 % 0.00 in 0.00 W/m2
03:16 50.3 °F 30.3 °F 30.05 in Calm     46 % 0.00 in 0.00 W/m2
03:21 50.3 °F 30.3 °F 30.05 in East 1.0 mph 2.0 mph 46 % 0.00 in 0.00 W/m2
03:26 50.2 °F 30.2 °F 30.05 in Calm     46 % 0.00 in 0.00 W/m2
03:31 50.2 °F 30.2 °F 30.06 in ESE 4.0 mph 4.0 mph 46 % 0.00 in 0.00 W/m2
03:36 50.2 °F 30.2 °F 30.05 in East 6.0 mph 6.0 mph 46 % 0.00 in 0.00 W/m2
03:41 50.2 °F 30.2 °F 30.05 in ESE 4.0 mph 4.0 mph 46 % 0.00 in 0.00 W/m2
03:46 50.2 °F 30.2 °F 30.06 in Calm     46 % 0.00 in 0.00 W/m2
03:51 50.2 °F 30.2 °F 30.06 in Calm     46 % 0.00 in 0.00 W/m2
03:56 50.2 °F 30.2 °F 30.06 in Calm   4.0 mph 46 % 0.00 in 0.00 W/m2
04:01 50.2 °F 29.7 °F 30.06 in ESE 8.0 mph 8.0 mph 45 % 0.00 in 0.00 W/m2
04:06 50.1 °F 30.1 °F 30.06 in Calm   5.0 mph 46 % 0.00 in 0.00 W/m2
04:16 50.0 °F 30.0 °F 30.06 in Calm     46 % 0.00 in 0.00 W/m2
04:21 49.9 °F 30.0 °F 30.06 in ESE 1.0 mph 6.0 mph 46 % 0.00 in 0.00 W/m2
04:26 49.9 °F 30.0 °F 30.06 in Calm   7.0 mph 46 % 0.00 in 0.00 W/m2
04:31 49.8 °F 29.9 °F 30.07 in East 6.0 mph 8.0 mph 46 % 0.00 in 0.00 W/m2
04:36 49.7 °F 29.8 °F 30.07 in Calm   4.0 mph 46 % 0.00 in 0.00 W/m2
04:41 49.7 °F 29.8 °F 30.07 in Calm   5.0 mph 46 % 0.00 in 0.00 W/m2
04:46 49.7 °F 29.8 °F 30.07 in East 2.0 mph 7.0 mph 46 % 0.00 in 0.00 W/m2
04:51 49.7 °F 29.8 °F 30.07 in ESE 7.0 mph 8.0 mph 46 % 0.00 in 0.00 W/m2
04:56 49.7 °F 29.8 °F 30.08 in Calm     46 % 0.00 in 0.00 W/m2
05:01 49.7 °F 29.8 °F 30.08 in Calm   8.0 mph 46 % 0.00 in 0.00 W/m2
05:06 49.6 °F 29.7 °F 30.08 in ESE 5.0 mph 5.0 mph 46 % 0.00 in 0.00 W/m2
05:11 49.6 °F 29.7 °F 30.08 in Calm     46 % 0.00 in 0.00 W/m2
05:16 49.6 °F 29.7 °F 30.08 in Calm   7.0 mph 46 % 0.00 in 0.00 W/m2
05:26 49.5 °F 29.6 °F 30.08 in Calm   7.0 mph 46 % 0.00 in 0.00 W/m2
05:31 49.5 °F 29.6 °F 30.09 in Calm   6.0 mph 46 % 0.00 in 0.00 W/m2
05:36 49.4 °F 29.5 °F 30.09 in Calm   7.0 mph 46 % 0.00 in 0.00 W/m2
05:41 49.4 °F 29.5 °F 30.09 in Calm   6.0 mph 46 % 0.00 in 0.00 W/m2
05:46 49.3 °F 29.9 °F 30.09 in Calm   2.0 mph 47 % 0.00 in 0.00 W/m2
05:56 49.3 °F 29.9 °F 30.09 in Calm   6.0 mph 47 % 0.00 in 0.00 W/m2
06:01 49.2 °F 29.9 °F 30.09 in Calm     47 % 0.00 in 0.00 W/m2
06:06 49.1 °F 29.8 °F 30.09 in Calm   5.0 mph 47 % 0.00 in 0.00 W/m2
06:11 49.1 °F 29.8 °F 30.09 in Calm     47 % 0.00 in 0.00 W/m2
06:16 49.1 °F 29.8 °F 30.09 in Calm   5.0 mph 47 % 0.00 in 0.00 W/m2
06:22 49.0 °F 29.7 °F 30.10 in ESE 1.0 mph 7.0 mph 47 % 0.00 in 0.00 W/m2
06:27 49.0 °F 29.7 °F 30.10 in Calm   7.0 mph 47 % 0.00 in 0.00 W/m2
06:32 48.9 °F 29.6 °F 30.10 in Calm   7.0 mph 47 % 0.00 in 0.00 W/m2
06:37 48.8 °F 30.0 °F 30.10 in Calm   7.0 mph 48 % 0.00 in 0.00 W/m2
06:42 48.7 °F 29.9 °F 30.10 in Calm   5.0 mph 48 % 0.00 in 0.00 W/m2
06:47 48.6 °F 29.8 °F 30.10 in Calm   9.0 mph 48 % 0.00 in 0.00 W/m2
06:52 48.5 °F 29.7 °F 30.10 in East 6.0 mph 7.0 mph 48 % 0.00 in 0.00 W/m2
06:57 48.5 °F 29.7 °F 30.10 in Calm   12.0 mph 48 % 0.00 in 5.00 W/m2
07:02 48.4 °F 29.6 °F 30.10 in Calm   5.0 mph 48 % 0.00 in 7.00 W/m2
07:07 48.3 °F 29.5 °F 30.10 in Calm   11.0 mph 48 % 0.00 in 9.00 W/m2
07:17 48.3 °F 29.5 °F 30.11 in East 1.0 mph 8.0 mph 48 % 0.00 in 14.00 W/m2
07:22 48.3 °F 29.5 °F 30.11 in Calm   8.0 mph 48 % 0.00 in 18.00 W/m2
07:27 48.4 °F 29.6 °F 30.11 in Calm   6.0 mph 48 % 0.00 in 23.00 W/m2
07:32 48.4 °F 29.6 °F 30.11 in Calm   9.0 mph 48 % 0.00 in 32.00 W/m2
07:37 48.5 °F 29.7 °F 30.11 in Calm   6.0 mph 48 % 0.00 in 46.00 W/m2
07:42 48.5 °F 29.7 °F 30.11 in Calm   5.0 mph 48 % 0.00 in 58.00 W/m2
07:47 48.5 °F 29.7 °F 30.12 in East 4.0 mph 9.0 mph 48 % 0.00 in 74.00 W/m2
07:52 48.6 °F 29.8 °F 30.12 in Calm   8.0 mph 48 % 0.00 in 90.00 W/m2
07:57 48.7 °F 29.9 °F 30.12 in East 7.0 mph 13.0 mph 48 % 0.00 in 109.00 W/m2
08:02 48.8 °F 30.0 °F 30.12 in Calm   9.0 mph 48 % 0.00 in 127.00 W/m2
08:07 48.9 °F 30.1 °F 30.12 in East 6.0 mph 7.0 mph 48 % 0.00 in 146.00 W/m2
08:12 49.0 °F 30.2 °F 30.12 in Calm   7.0 mph 48 % 0.00 in 163.00 W/m2
08:17 49.1 °F 30.8 °F 30.12 in Calm   8.0 mph 49 % 0.00 in 176.00 W/m2
08:22 49.3 °F 31.0 °F 30.12 in East 5.0 mph 6.0 mph 49 % 0.00 in 200.00 W/m2
08:27 49.4 °F 31.1 °F 30.12 in Calm   8.0 mph 49 % 0.00 in 223.00 W/m2
08:32 49.6 °F 31.2 °F 30.13 in Calm   8.0 mph 49 % 0.00 in 243.00 W/m2
08:37 49.7 °F 31.3 °F 30.13 in Calm   8.0 mph 49 % 0.00 in 264.00 W/m2
08:42 49.9 °F 31.5 °F 30.13 in Calm   6.0 mph 49 % 0.00 in 283.00 W/m2
08:47 50.1 °F 31.7 °F 30.13 in Calm   12.0 mph 49 % 0.00 in 301.00 W/m2
08:52 50.3 °F 31.9 °F 30.13 in Calm   6.0 mph 49 % 0.00 in 318.00 W/m2
08:57 50.6 °F 32.2 °F 30.13 in Calm   5.0 mph 49 % 0.00 in 334.00 W/m2
09:02 50.8 °F 32.3 °F 30.13 in Calm   7.0 mph 49 % 0.00 in 348.00 W/m2
09:07 51.0 °F 32.5 °F 30.13 in Calm   8.0 mph 49 % 0.00 in 366.00 W/m2
09:12 51.3 °F 32.3 °F 30.14 in Calm   2.0 mph 48 % 0.00 in 380.00 W/m2
09:17 51.5 °F 32.5 °F 30.13 in Calm   6.0 mph 48 % 0.00 in 394.00 W/m2
09:22 51.9 °F 32.8 °F 30.14 in Calm   8.0 mph 48 % 0.00 in 408.00 W/m2
09:27 52.2 °F 33.1 °F 30.14 in Calm   4.0 mph 48 % 0.00 in 424.00 W/m2
11:01 52.5 °F 33.4 °F 30.14 in Calm     48 % 0.00 in 434.00 W/m2
11:06 60.8 °F 34.4 °F 30.15 in Calm     37 % 0.00 in 650.00 W/m2
11:11 61.2 °F 34.7 °F 30.15 in North 1.0 mph 2.0 mph 37 % 0.00 in 657.00 W/m2
11:16 61.4 °F 34.9 °F 30.15 in NNW 2.0 mph 2.0 mph 37 % 0.00 in 668.00 W/m2
11:21 61.7 °F 34.5 °F 30.15 in Calm     36 % 0.00 in 677.00 W/m2
11:26 61.8 °F 33.9 °F 30.15 in Calm     35 % 0.00 in 682.00 W/m2
11:31 61.9 °F 34.7 °F 30.15 in Calm     36 % 0.00 in 691.00 W/m2
11:36 62.2 °F 34.2 °F 30.15 in WNW 2.0 mph 3.0 mph 35 % 0.00 in 694.00 W/m2
11:41 62.4 °F 33.7 °F 30.15 in Calm     34 % 0.00 in 701.00 W/m2
11:46 62.7 °F 34.0 °F 30.15 in Calm     34 % 0.00 in 707.00 W/m2
11:51 63.1 °F 34.3 °F 30.15 in Calm     34 % 0.00 in 712.00 W/m2
11:56 63.5 °F 34.7 °F 30.15 in Calm   4.0 mph 34 % 0.00 in 719.00 W/m2
12:01 63.7 °F 34.1 °F 30.15 in NW 3.0 mph 3.0 mph 33 % 0.00 in 722.00 W/m2
12:06 63.8 °F 34.2 °F 30.15 in NNW 1.0 mph 4.0 mph 33 % 0.00 in 728.00 W/m2
12:11 64.0 °F 32.8 °F 30.14 in Calm   1.0 mph 31 % 0.00 in 729.00 W/m2
12:16 64.1 °F 32.9 °F 30.14 in Calm   6.0 mph 31 % 0.00 in 737.00 W/m2
12:26 64.4 °F 33.9 °F 30.14 in NNW 2.0 mph 2.0 mph 32 % 0.00 in 737.00 W/m2
12:31 64.6 °F 34.1 °F 30.14 in Calm     32 % 0.00 in 738.00 W/m2
12:36 64.9 °F 35.1 °F 30.14 in Calm   2.0 mph 33 % 0.00 in 740.00 W/m2
12:41 65.2 °F 34.6 °F 30.14 in NNE 3.0 mph 7.0 mph 32 % 0.00 in 740.00 W/m2
12:46 65.6 °F 33.4 °F 30.14 in Calm     30 % 0.00 in 742.00 W/m2
12:51 65.8 °F 35.2 °F 30.13 in West 1.0 mph 3.0 mph 32 % 0.00 in 742.00 W/m2
12:56 65.9 °F 35.2 °F 30.14 in Calm     32 % 0.00 in 740.00 W/m2
13:01 66.1 °F 34.6 °F 30.13 in Calm   6.0 mph 31 % 0.00 in 738.00 W/m2
13:06 66.3 °F 34.8 °F 30.13 in Calm   1.0 mph 31 % 0.00 in 738.00 W/m2
13:11 66.5 °F 35.0 °F 30.13 in Calm   8.0 mph 31 % 0.00 in 735.00 W/m2
13:16 66.6 °F 34.2 °F 30.13 in NNW 3.0 mph 6.0 mph 30 % 0.00 in 733.00 W/m2
13:21 66.8 °F 33.5 °F 30.13 in NNW 2.0 mph 7.0 mph 29 % 0.00 in 733.00 W/m2
13:26 66.9 °F 33.6 °F 30.12 in Calm     29 % 0.00 in 726.00 W/m2
13:31 67.1 °F 34.7 °F 30.12 in WNW 3.0 mph 7.0 mph 30 % 0.00 in 722.00 W/m2
13:36 67.2 °F 34.8 °F 30.12 in Calm     30 % 0.00 in 717.00 W/m2
13:41 67.3 °F 34.8 °F 30.12 in Calm     30 % 0.00 in 714.00 W/m2
13:46 67.4 °F 35.7 °F 30.11 in Calm   4.0 mph 31 % 0.00 in 708.00 W/m2
13:51 67.5 °F 35.8 °F 30.11 in Calm     31 % 0.00 in 705.00 W/m2
13:56 67.5 °F 35.0 °F 30.11 in Calm     30 % 0.00 in 700.00 W/m2
14:06 67.6 °F 35.1 °F 30.11 in Calm   3.0 mph 30 % 0.00 in 684.00 W/m2
14:11 67.8 °F 36.1 °F 30.11 in WSW 2.0 mph 6.0 mph 31 % 0.00 in 677.00 W/m2
14:16 67.7 °F 36.0 °F 30.10 in NW 1.0 mph 3.0 mph 31 % 0.00 in 670.00 W/m2
14:21 67.6 °F 35.9 °F 30.10 in Calm   2.0 mph 31 % 0.00 in 663.00 W/m2
14:27 67.5 °F 35.8 °F 30.10 in Calm   7.0 mph 31 % 0.00 in 656.00 W/m2
14:37 67.2 °F 35.6 °F 30.10 in WNW 5.0 mph 7.0 mph 31 % 0.00 in 642.00 W/m2
14:42 67.1 °F 35.5 °F 30.09 in WNW 1.0 mph 1.0 mph 31 % 0.00 in 633.00 W/m2
14:47 67.0 °F 36.2 °F 30.09 in Calm   1.0 mph 32 % 0.00 in 621.00 W/m2
14:52 67.0 °F 35.4 °F 30.09 in Calm   4.0 mph 31 % 0.00 in 606.00 W/m2
15:02 67.1 °F 35.5 °F 30.09 in Calm     31 % 0.00 in 592.00 W/m2
15:12 66.9 °F 35.3 °F 30.09 in WNW 8.0 mph 8.0 mph 31 % 0.00 in 568.00 W/m2
15:17 66.9 °F 35.3 °F 30.09 in West 3.0 mph 7.0 mph 31 % 0.00 in 559.00 W/m2
15:22 66.9 °F 35.3 °F 30.08 in West 6.0 mph 10.0 mph 31 % 0.00 in 548.00 W/m2
15:27 66.9 °F 36.1 °F 30.08 in Calm   4.0 mph 32 % 0.00 in 538.00 W/m2
15:37 66.9 °F 35.3 °F 30.08 in Calm   10.0 mph 31 % 0.00 in 510.00 W/m2
15:42 66.8 °F 35.2 °F 30.08 in WNW 4.0 mph 9.0 mph 31 % 0.00 in 499.00 W/m2
15:47 66.8 °F 35.2 °F 30.08 in Calm   10.0 mph 31 % 0.00 in 487.00 W/m2
15:52 66.8 °F 35.2 °F 30.08 in West 3.0 mph 9.0 mph 31 % 0.00 in 466.00 W/m2
15:57 66.8 °F 35.2 °F 30.08 in Calm   8.0 mph 31 % 0.00 in 459.00 W/m2
16:02 66.8 °F 35.2 °F 30.08 in West 3.0 mph 7.0 mph 31 % 0.00 in 448.00 W/m2
16:07 66.9 °F 35.3 °F 30.08 in Calm   1.0 mph 31 % 0.00 in 431.00 W/m2
16:12 66.9 °F 35.3 °F 30.08 in NW 3.0 mph 8.0 mph 31 % 0.00 in 420.00 W/m2
16:17 66.8 °F 34.4 °F 30.08 in WNW 3.0 mph 8.0 mph 30 % 0.00 in 404.00 W/m2
16:22 66.8 °F 35.2 °F 30.08 in Calm   4.0 mph 31 % 0.00 in 390.00 W/m2
16:32 66.6 °F 35.0 °F 30.07 in Calm   6.0 mph 31 % 0.00 in 360.00 W/m2
16:37 66.5 °F 35.0 °F 30.07 in Calm   5.0 mph 31 % 0.00 in 343.00 W/m2
16:42 66.4 °F 34.9 °F 30.08 in Calm   5.0 mph 31 % 0.00 in 327.00 W/m2
16:48 66.3 °F 35.6 °F 30.08 in Calm   3.0 mph 32 % 0.00 in 311.00 W/m2
16:53 66.3 °F 35.6 °F 30.07 in Calm   8.0 mph 32 % 0.00 in 294.00 W/m2
16:58 66.3 °F 34.8 °F 30.07 in NW 2.0 mph 8.0 mph 31 % 0.00 in 281.00 W/m2
17:03 66.2 °F 34.7 °F 30.07 in NW 6.0 mph 10.0 mph 31 % 0.00 in 267.00 W/m2
17:08 66.1 °F 34.6 °F 30.07 in West 7.0 mph 9.0 mph 31 % 0.00 in 248.00 W/m2
17:13 65.9 °F 34.4 °F 30.07 in Calm   5.0 mph 31 % 0.00 in 232.00 W/m2
17:18 65.7 °F 34.3 °F 30.07 in Calm   8.0 mph 31 % 0.00 in 218.00 W/m2
17:23 65.5 °F 34.1 °F 30.07 in Calm   9.0 mph 31 % 0.00 in 199.00 W/m2
17:28 65.4 °F 34.8 °F 30.07 in WNW 1.0 mph 6.0 mph 32 % 0.00 in 179.00 W/m2
17:33 65.2 °F 34.6 °F 30.07 in NW 4.0 mph 10.0 mph 32 % 0.00 in 160.00 W/m2
17:38 65.1 °F 34.5 °F 30.07 in WNW 6.0 mph 8.0 mph 32 % 0.00 in 134.00 W/m2
17:43 64.9 °F 35.1 °F 30.07 in Calm   1.0 mph 33 % 0.00 in 121.00 W/m2
17:45 64.8 °F 35.0 °F 30.07 in NNW 1.0 mph 8.0 mph 33 % 0.00 in 109.00 W/m2
17:50 64.6 °F 34.9 °F 30.07 in NNW 2.0 mph 8.0 mph 33 % 0.00 in 97.00 W/m2
17:55 64.5 °F 34.8 °F 30.07 in Calm   12.0 mph 33 % 0.00 in 83.00 W/m2
19:27 59.3 °F 33.7 °F 30.07 in Calm     38 % 0.00 in 0.00 W/m2
19:32 59.1 °F 33.5 °F 30.07 in Calm     38 % 0.00 in 0.00 W/m2
19:37 58.9 °F 34.0 °F 30.07 in Calm     39 % 0.00 in 0.00 W/m2
19:42 58.8 °F 33.9 °F 30.07 in Calm     39 % 0.00 in 0.00 W/m2
19:47 58.6 °F 33.7 °F 30.07 in Calm     39 % 0.00 in 0.00 W/m2
19:52 58.4 °F 33.6 °F 30.07 in Calm     39 % 0.00 in 0.00 W/m2
19:57 58.2 °F 33.4 °F 30.07 in Calm   5.0 mph 39 % 0.00 in 0.00 W/m2
20:02 58.0 °F 33.2 °F 30.07 in North 6.0 mph 6.0 mph 39 % 0.00 in 0.00 W/m2
20:07 57.9 °F 33.1 °F 30.07 in Calm   1.0 mph 39 % 0.00 in 0.00 W/m2
20:12 57.7 °F 32.9 °F 30.07 in Calm     39 % 0.00 in 0.00 W/m2
20:17 57.6 °F 32.8 °F 30.07 in Calm   2.0 mph 39 % 0.00 in 0.00 W/m2
20:23 57.5 °F 33.4 °F 30.07 in Calm     40 % 0.00 in 0.00 W/m2
20:24 57.5 °F 32.8 °F 30.07 in Calm     39 % 0.00 in 0.00 W/m2
20:26 57.4 °F 32.7 °F 30.07 in North 3.0 mph 4.0 mph 39 % 0.00 in 0.00 W/m2
20:28 57.4 °F 32.7 °F 30.07 in Calm   4.0 mph 39 % 0.00 in 0.00 W/m2
20:33 57.3 °F 33.2 °F 30.07 in Calm     40 % 0.00 in 0.00 W/m2
20:38 57.2 °F 33.1 °F 30.07 in Calm     40 % 0.00 in 0.00 W/m2
20:43 57.1 °F 33.0 °F 30.07 in Calm     40 % 0.00 in 0.00 W/m2
20:48 57.0 °F 32.9 °F 30.07 in Calm     40 % 0.00 in 0.00 W/m2
20:53 56.9 °F 32.8 °F 30.07 in Calm     40 % 0.00 in 0.00 W/m2
20:58 56.7 °F 32.7 °F 30.07 in Calm     40 % 0.00 in 0.00 W/m2
21:04 56.5 °F 33.1 °F 30.07 in Calm     41 % 0.00 in 0.00 W/m2
21:09 56.4 °F 33.0 °F 30.07 in Calm     41 % 0.00 in 0.00 W/m2
21:14 56.3 °F 32.9 °F 30.07 in Calm   2.0 mph 41 % 0.00 in 0.00 W/m2
21:19 56.2 °F 32.8 °F 30.07 in Calm   4.0 mph 41 % 0.00 in 0.00 W/m2
21:29 56.1 °F 33.3 °F 30.07 in Calm   1.0 mph 42 % 0.00 in 0.00 W/m2
21:34 56.0 °F 33.2 °F 30.07 in Calm   3.0 mph 42 % 0.00 in 0.00 W/m2
21:39 56.0 °F 33.2 °F 30.07 in Calm   1.0 mph 42 % 0.00 in 0.00 W/m2
21:44 55.9 °F 33.8 °F 30.07 in Calm   2.0 mph 43 % 0.00 in 0.00 W/m2
21:49 55.9 °F 33.8 °F 30.07 in Calm     43 % 0.00 in 0.00 W/m2
21:54 55.8 °F 33.7 °F 30.07 in Calm     43 % 0.00 in 0.00 W/m2
21:59 55.7 °F 33.6 °F 30.07 in Calm     43 % 0.00 in 0.00 W/m2
22:07 55.6 °F 33.5 °F 30.07 in Calm     43 % 0.00 in 0.00 W/m2
22:12 55.6 °F 33.5 °F 30.07 in Calm     43 % 0.00 in 0.00 W/m2
22:17 55.5 °F 34.0 °F 30.07 in NE 3.0 mph 6.0 mph 44 % 0.00 in 0.00 W/m2
22:22 55.4 °F 33.9 °F 30.07 in Calm   4.0 mph 44 % 0.00 in 0.00 W/m2
22:27 55.3 °F 33.8 °F 30.07 in Calm   5.0 mph 44 % 0.00 in 0.00 W/m2
22:32 55.2 °F 33.7 °F 30.07 in Calm   3.0 mph 44 % 0.00 in 0.00 W/m2
22:37 55.1 °F 33.6 °F 30.06 in Calm     44 % 0.00 in 0.00 W/m2
22:42 55.1 °F 33.6 °F 30.07 in Calm   5.0 mph 44 % 0.00 in 0.00 W/m2
22:47 55.0 °F 34.1 °F 30.07 in Calm   2.0 mph 45 % 0.00 in 0.00 W/m2
22:52 55.0 °F 34.1 °F 30.07 in Calm     45 % 0.00 in 0.00 W/m2
22:57 55.0 °F 34.1 °F 30.07 in Calm     45 % 0.00 in 0.00 W/m2
23:02 54.9 °F 34.0 °F 30.07 in Calm     45 % 0.00 in 0.00 W/m2
23:07 54.9 °F 34.0 °F 30.07 in Calm     45 % 0.00 in 0.00 W/m2
23:12 54.8 °F 33.9 °F 30.07 in Calm     45 % 0.00 in 0.00 W/m2
23:17 54.6 °F 33.7 °F 30.07 in Calm     45 % 0.00 in 0.00 W/m2
23:22 54.5 °F 33.6 °F 30.07 in Calm     45 % 0.00 in 0.00 W/m2
23:27 54.4 °F 34.1 °F 30.07 in Calm   4.0 mph 46 % 0.00 in 0.00 W/m2
23:33 54.2 °F 33.9 °F 30.07 in Calm   5.0 mph 46 % 0.00 in 0.00 W/m2
23:38 54.0 °F 33.7 °F 30.07 in East 1.0 mph 5.0 mph 46 % 0.00 in 0.00 W/m2
23:48 53.8 °F 34.1 °F 30.07 in Calm     47 % 0.00 in 0.00 W/m2
23:53 53.7 °F 34.0 °F 30.07 in Calm   5.0 mph 47 % 0.00 in 0.00 W/m2
23:58 53.6 °F 33.9 °F 30.07 in Calm     47 % 0.00 in 0.00 W/m2
Juneau County Weather
Compliments of Weather Underground - 4.25 mb
 WU-history PHP script courtesy of   Juneau County Weather.
powered by Cumulus v1.9.3 (1059)
Ambient Weather VWS v14.00
Top Contact Website Map Copyright © 2007 - 2018 Foresthillweather.com Never base important decisions on this or any weather information obtained from the Internet